Zurück zum Katalog

METEOR 3-6

AktivWetterPO
NORAD 22969·PAYLOAD·🇷🇺 Russia

Gestartet Jan 25, 1994 von Plesetsk Cosmodrome

Loading…

Nächste Überflüge (nächste 24 Stunden)

TLE

AktuellSource: Space-Track

Epoche: Sep 14, 2026, 06:37 UTC

1 22969U 94003A   26257.27634163  .00000150  00000-0  35761-3 0  9999
2 22969  82.5654  24.3775 0014647 349.5775  10.5042 13.17064207568967

Verfolge METEOR 3-6 in Echtzeit mit AllMySat

Download on the App Store